[[{"header":{"parameterUnit":"m.s-1","parameterCategory":1,"la1":30.2991,"la2":30.254,"lo1":-89.0895,"lo2":-89.0444,"dy":0.0017,"dx":0.0017,"nx":28,"ny":28,"refTime":"2023-10-03T03:00:00:Z","depth":0,"parameterNumber":2,"parameterNumberName":"U-component_of_WINDS"},"data":[0,0,0,0,0,0,0,0,0,0,0,0,0,0,0,0,0,0,0,0,0,0,0,0,0,0,0,0,0,0,0,0,0,0,0,0,0,0,0,0,0,0,0,0,0,0,0,0,0,0,0,0,0,0,0,0,0,0,-4.9961,-4.9961,0,-4.9957,-4.9957,-4.9957,-4.9842,-4.9839,-4.9836,-4.9833,-4.983,-4.9833,-4.9836,0,0,0,0,0,0,0,0,0,0,0,0,0,-4.987,-4.9873,-4.9961,-4.9961,-4.9961,-4.9957,-4.9957,-4.9957,-4.9842,-4.9838,-4.9835,-4.9831,-4.983,-4.9833,-4.9836,0,0,0,0,0,0,0,0,0,0,0,0,0,-4.9893,-4.9873,-4.9961,-4.9903,-4.9898,-4.9957,-4.9957,-4.9957,-4.9843,-4.9838,-4.9834,-4.983,-4.9829,-4.9833,-4.9837,-4.9952,0,0,-4.9849,-4.9851,0,0,0,0,0,0,0,0,-4.9892,-4.9896,-4.9912,-4.9907,-4.9901,-4.9895,-4.9924,-4.9956,-4.9844,-4.9864,-4.9833,-4.9827,-4.9856,-4.9857,-4.9867,-4.9952,-4.9952,-4.9849,-4.9852,-4.9854,-4.9855,0,0,0,0,0,0,0,-4.989,-4.9896,-4.996,-4.9912,-4.9906,-4.9878,-4.9876,-4.993,-4.9885,-4.9862,-4.9853,-4.9854,-4.9852,-4.9863,-4.9866,-4.9952,-4.9849,-4.9853,-4.9855,-4.9857,-5.0133,-5.0137,0,0,0,0,0,0,-4.9896,-4.9895,-4.996,-4.9959,-4.9885,-4.9883,-4.9881,-4.9902,-4.9884,-4.9877,-4.9858,-4.9849,-4.9858,-4.9861,-4.9865,-4.9999,-4.9854,-4.9857,-4.986,-5.0128,-5.0134,-5.0139,0,0,0,0,0,0,-4.9895,-4.9903,-4.996,-4.9925,-4.993,-4.9889,-4.9914,-4.9904,-4.9915,-4.9882,-4.9873,-4.9877,-4.9855,-4.9859,-4.9931,-4.9998,-4.9859,-4.9863,-5.0122,-5.013,-5.0136,-5.0269,0,0,0,0,0,0,-4.9893,-4.9903,-4.9946,-4.9927,-4.9932,-5.0026,-4.9918,-4.9907,-4.9922,-4.991,-4.9897,-4.9891,-4.9852,-4.9926,-4.9935,-5.0001,-4.9866,-5.0116,-5.0125,-5.0134,-5.0258,-5.028,-5.0298,0,0,0,0,0,-4.989,-4.9983,-4.9949,-4.9957,-4.9985,-5.003,-5.0033,-4.9985,-4.9928,-4.9971,-4.995,-4.9891,-4.9989,-4.9934,-4.9944,-5.0012,-5.0111,-5.0123,-5.0133,-5.0249,-5.0275,-5.0298,0,0,0,0,0,0,-5.0011,-4.998,-4.9941,-5.0031,-5.0034,-5.001,-5.0062,-5.0014,-5.0034,-5.0022,-4.9963,-4.9961,-5.0042,-5.0034,-4.9973,-5.0123,-5.004,-5.0054,-5.0125,-5.015,-5.0169,-5.0169,-4.987,0,0,0,0,0,-5.0049,-5.0087,-5.0058,-5.014,-5.0144,-5.0104,-5.0121,-5.0085,-5.0085,-5.0086,-5.007,-5.0074,-5.0105,-5.0127,-5.0154,-5.0257,-5.0253,-5.0309,-5.0329,-5.0345,-5.0357,-5.0412,-5.0436,-5.0175,-5.0175,-5.0175,0,0,-5.0126,-5.0114,-5.0141,-5.0164,-5.0162,-5.0204,-5.0105,-5.0153,-5.0184,-5.0093,-5.016,-5.0149,-5.0149,-5.0238,-5.0276,-5.0233,-5.0429,-5.0359,-5.0372,-5.0375,-5.0426,-5.045,-5.0473,-5.0182,-5.0181,-5.018,0,0,-5.0288,-5.0283,-5.0351,-5.0351,-5.0349,-5.0322,-5.0339,-5.0323,-5.0312,-5.0378,-5.0312,-5.0348,-5.0403,-5.0406,-5.0415,-5.0582,-5.0529,-5.0592,-5.0696,-5.075,-5.077,-5.0788,-5.0848,-5.087,-5.0605,-5.0605,-5.0605,0,-5.0384,-5.0444,-5.0392,-5.0445,-5.0458,-5.0378,-5.0447,-5.045,-5.0458,-5.0469,-5.0421,-5.049,-5.0485,-5.0573,-5.0614,-5.0624,-5.0641,-5.0593,-5.0772,-5.0789,-5.0805,-5.0861,-5.0884,-5.0613,-5.0612,-5.0611,-5.061,0,-5.0563,-5.0606,-5.0661,-5.067,-5.0689,-5.0751,-5.0709,-5.0734,-5.0697,-5.0676,-5.0745,-5.0736,-5.076,-5.0779,-5.0743,-5.0863,-5.0837,-5.0782,-5.0697,-5.0839,-5.089,-5.0911,-5.0624,-5.0621,-5.0619,-5.0617,0,0,-5.0799,-5.078,-5.0802,-5.0805,-5.0799,-5.0831,-5.089,-5.0913,-5.0937,-5.0946,-5.0993,-5.1043,-5.0993,-5.1003,-5.0967,-5.1015,-5.1148,-5.0954,-5.0953,-5.099,-5.128,-5.1321,-5.1347,-5.1113,-5.1117,-5.112,-5.128,0,-5.0955,-5.1053,-5.1009,-5.1111,-5.1151,-5.1077,-5.1128,-5.113,-5.1113,-5.1144,-5.1124,-5.1161,-5.1091,-5.1097,-5.1141,-5.1122,-5.1205,-5.111,-5.1157,-5.116,-5.1159,-5.1374,-5.1417,-5.1568,-5.13,-5.1303,-5.1306,0,-5.115,-5.1167,-5.1274,-5.1262,-5.1277,-5.1323,-5.1342,-5.1373,-5.1375,-5.1359,-5.1372,-5.1325,-5.1383,-5.13,-5.1379,-5.1315,-5.1332,-5.1326,-5.1331,-5.1333,-5.1241,-5.1381,-5.1615,-5.1638,-5.1337,-5.1335,-5.1332,0,-5.1312,-5.1362,-5.1432,-5.1438,-5.1425,-5.146,-5.1456,-5.1454,-5.1471,-5.1489,-5.15,-5.1524,-5.1537,-5.1557,-5.1519,-5.1462,-5.1604,-5.1517,-5.1592,-5.1594,-5.1624,-5.1623,-5.1864,-5.1637,-5.1637,-5.1636,-5.1636,0,-5.1491,-5.1559,-5.1505,-5.1548,-5.1623,-5.1573,-5.1648,-5.1637,-5.1636,-5.1676,-5.1614,-5.1654,-5.1601,-5.1636,-5.1607,-5.1677,-5.1684,-5.1673,-5.1664,-5.1678,-5.1679,-5.1687,-5.1676,-5.1642,-5.1641,-5.164,-5.1639,0,-5.1683,-5.1649,-5.1721,-5.1704,-5.1702,-5.1758,-5.1743,-5.1783,-5.1762,-5.1814,-5.1823,-5.179,-5.1828,-5.1793,-5.1829,-5.1809,-5.1903,-5.188,-5.1902,-5.1896,-5.1972,-5.1966,-5.2227,-5.2258,-5.2012,-5.2014,-5.2016,0,-5.1799,-5.1849,-5.1838,-5.1861,-5.1861,-5.1898,-5.1916,-5.187,-5.1891,-5.1898,-5.1938,-5.1971,-5.1994,-5.2059,-5.2039,-5.2067,-5.2043,-5.2133,-5.2046,-5.2059,-5.2044,-5.2041,-5.2046,-5.215,-5.2153,-5.2155,-5.2157,0,-5.2008,-5.1989,-5.2017,-5.204,-5.2064,-5.208,-5.2091,-5.2113,-5.2066,-5.2093,-5.2131,-5.215,-5.2187,-5.2221,-5.2243,-5.224,-5.2192,-5.2185,-5.2203,-5.2217,-5.2228,-5.2223,-5.1949,-5.2178,-5.2176,-5.2175,-5.2173,-5.2173,-5.2165,-5.2207,-5.2206,-5.224,-5.2244,-5.2256,-5.2293,-5.2277,-5.2308,-5.2334,-5.2306,-5.2353,-5.2355,-5.2379,-5.2382,-5.2419,-5.2381,-5.2409,-5.2415,-5.2423,-5.2434,-5.2224,-5.2423,-5.2422,-5.2422,-5.2421,-5.2421,0,-5.237,-5.2367,-5.2398,-5.2416,-5.2444,-5.2396,-5.2406,-5.2432,-5.2474,-5.248,-5.2505,-5.255,-5.2583,-5.2566,-5.2595,-5.2628,-5.2607,-5.2637,-5.2634,-5.2634,-5.2466,-5.2446,-5.2654,-5.2654,-5.2654,-5.2654,-5.2654,-5.2654,-5.248,-5.2549,-5.2531,-5.2602,-5.2598,-5.2643,-5.2653,-5.2665,-5.267,-5.2722,-5.2749,-5.2738,-5.2736,-5.2764,-5.2793,-5.2787,-5.2801,-5.284,-5.2826,-5.2669,-5.2646,-5.2624,-5.2605,-5.2843,-5.2843,-5.2991,-5.2993,-5.2994]},{"header":{"parameterUnit":"m.s-1","parameterCategory":1,"la1":30.2991,"la2":30.254,"lo1":-89.0895,"lo2":-89.0444,"dy":0.0017,"dx":0.0017,"nx":28,"ny":28,"refTime":"2023-10-03T03:00:00:Z","depth":0,"parameterNumber":3,"parameterNumberName":"V-component_of_WINDS"},"data":[0,0,0,0,0,0,0,0,0,0,0,0,0,0,0,0,0,0,0,0,0,0,0,0,0,0,0,0,0,0,0,0,0,0,0,0,0,0,0,0,0,0,0,0,0,0,0,0,0,0,0,0,0,0,0,0,0,0,1.8853,1.8853,0,1.8862,1.8862,1.8862,1.8922,1.8923,1.8925,1.8926,1.8928,1.8926,1.8925,0,0,0,0,0,0,0,0,0,0,0,0,0,1.8885,1.8884,1.8853,1.8853,1.8854,1.8862,1.8862,1.8862,1.8921,1.8923,1.8925,1.8927,1.8928,1.8926,1.8925,0,0,0,0,0,0,0,0,0,0,0,0,0,1.888,1.8884,1.8853,1.8885,1.8887,1.8862,1.8862,1.8862,1.8921,1.8923,1.8925,1.8928,1.8929,1.8927,1.8925,1.8867,0,0,1.8918,1.8917,0,0,0,0,0,0,0,0,1.888,1.8878,1.888,1.8882,1.8886,1.8893,1.8873,1.8863,1.892,1.8908,1.8926,1.8929,1.8914,1.8913,1.891,1.8867,1.8867,1.8918,1.8917,1.8916,1.8916,0,0,0,0,0,0,0,1.888,1.8878,1.8856,1.888,1.8883,1.8897,1.8898,1.8872,1.8898,1.8909,1.8914,1.8914,1.8916,1.8911,1.891,1.8868,1.8918,1.8916,1.8915,1.8914,1.878,1.8778,0,0,0,0,0,0,1.8877,1.8878,1.8856,1.8857,1.8888,1.8894,1.8896,1.8888,1.8899,1.8902,1.8912,1.8917,1.8914,1.8912,1.891,1.8844,1.8916,1.8914,1.8913,1.8782,1.8779,1.8777,0,0,0,0,0,0,1.8877,1.8874,1.8856,1.8869,1.8867,1.8891,1.8882,1.8887,1.8883,1.8901,1.8905,1.8903,1.8915,1.8913,1.8878,1.8845,1.8913,1.8911,1.8785,1.8781,1.8778,1.8711,0,0,0,0,0,0,1.8878,1.8874,1.8853,1.8868,1.8867,1.8825,1.888,1.8886,1.888,1.8886,1.8894,1.8897,1.8917,1.8881,1.8876,1.8843,1.891,1.8788,1.8783,1.8779,1.8716,1.8705,1.8696,0,0,0,0,0,1.8879,1.8833,1.8852,1.8849,1.8842,1.8823,1.8822,1.8848,1.8877,1.8856,1.8868,1.8897,1.885,1.8877,1.8872,1.8838,1.879,1.8785,1.8779,1.872,1.8707,1.8696,0,0,0,0,0,0,1.881,1.8835,1.8857,1.8814,1.8816,1.8833,1.8807,1.8833,1.8825,1.8831,1.8862,1.8863,1.8823,1.8827,1.8857,1.8784,1.8825,1.8818,1.8782,1.877,1.876,1.8758,1.8908,0,0,0,0,0,1.8791,1.8776,1.8797,1.8757,1.8758,1.8782,1.8775,1.8795,1.8798,1.8798,1.8807,1.8807,1.8792,1.8782,1.8769,1.8718,1.872,1.8692,1.8682,1.8674,1.8667,1.8641,1.8628,1.8759,1.8759,1.8759,0,0,1.8749,1.8761,1.8749,1.8744,1.8748,1.873,1.8782,1.876,1.8746,1.8794,1.8762,1.8769,1.8771,1.8728,1.8709,1.873,1.8632,1.8668,1.8661,1.8658,1.8634,1.8621,1.861,1.8756,1.8756,1.8757,0,0,1.8664,1.8672,1.864,1.8644,1.865,1.8667,1.866,1.8673,1.868,1.865,1.8685,1.8669,1.8643,1.8643,1.8639,1.8557,1.8583,1.8552,1.8499,1.8473,1.8463,1.8454,1.8423,1.8412,1.8546,1.8546,1.8546,0,1.861,1.8586,1.8619,1.8596,1.8592,1.8638,1.8605,1.8607,1.8607,1.8603,1.8628,1.8598,1.8602,1.856,1.854,1.8536,1.8527,1.855,1.8462,1.8453,1.8445,1.8417,1.8405,1.8542,1.8543,1.8543,1.8543,0,1.852,1.8502,1.8476,1.8478,1.8472,1.8444,1.8471,1.8461,1.8483,1.8497,1.8465,1.8473,1.8463,1.8455,1.8475,1.8415,1.8428,1.8457,1.8499,1.8428,1.8402,1.8391,1.8536,1.8538,1.8539,1.854,0,0,1.8388,1.8412,1.8401,1.8404,1.8416,1.8402,1.8376,1.8369,1.8359,1.8359,1.8337,1.8316,1.8344,1.834,1.836,1.8338,1.8271,1.8369,1.837,1.8349,1.8205,1.8182,1.8169,1.829,1.8288,1.8287,1.8205,0,1.8305,1.8263,1.8293,1.8246,1.823,1.8275,1.8252,1.8256,1.827,1.8257,1.8271,1.8255,1.8293,1.8291,1.8271,1.8284,1.8242,1.829,1.8267,1.8266,1.8263,1.8155,1.813,1.8052,1.8195,1.8193,1.8192,0,1.8201,1.82,1.8151,1.8168,1.8163,1.8142,1.8139,1.8127,1.8132,1.8144,1.8141,1.8168,1.8143,1.8187,1.8151,1.8183,1.8176,1.8181,1.8179,1.8175,1.8223,1.8147,1.8028,1.8016,1.8176,1.8177,1.8178,0,1.8109,1.8094,1.8064,1.8064,1.8084,1.8068,1.8075,1.8083,1.8078,1.8075,1.8071,1.8064,1.806,1.8053,1.8078,1.8107,1.8039,1.8084,1.8045,1.8045,1.8026,1.8027,1.7903,1.8025,1.8026,1.8026,1.8026,0,1.8011,1.7979,1.8023,1.8003,1.7969,1.8004,1.7969,1.798,1.7988,1.7971,1.8009,1.7992,1.8026,1.8012,1.8031,1.7999,1.7997,1.8004,1.8009,1.7999,1.7998,1.7993,1.7998,1.8023,1.8023,1.8024,1.8025,0,1.79,1.7928,1.7897,1.792,1.7924,1.7898,1.7916,1.7898,1.7916,1.7894,1.7891,1.7917,1.7903,1.7928,1.7915,1.7928,1.7883,1.7897,1.7881,1.7884,1.7844,1.7846,1.771,1.7693,1.7828,1.7827,1.7826,0,1.7835,1.7812,1.7833,1.7825,1.7831,1.7818,1.7814,1.7848,1.7841,1.7848,1.7829,1.7819,1.7812,1.7787,1.7804,1.7795,1.7808,1.7761,1.7806,1.7798,1.7805,1.7805,1.7803,1.775,1.7749,1.7748,1.7746,0,1.7716,1.7732,1.7725,1.7723,1.7717,1.7717,1.7719,1.771,1.7746,1.7737,1.7724,1.7719,1.7709,1.7698,1.7694,1.7699,1.7728,1.7733,1.7723,1.7711,1.7703,1.7705,1.7853,1.7735,1.7736,1.7737,1.7737,1.7738,1.7625,1.7607,1.7619,1.761,1.7616,1.7618,1.7603,1.762,1.7611,1.7606,1.7627,1.761,1.7617,1.7616,1.7618,1.7604,1.7625,1.7611,1.7607,1.7602,1.7595,1.7707,1.7604,1.7604,1.7604,1.7605,1.7605,0,1.7507,1.7518,1.751,1.7513,1.7506,1.7538,1.7542,1.7533,1.7518,1.7524,1.7518,1.7503,1.7493,1.7511,1.7504,1.7489,1.7502,1.7485,1.7485,1.7486,1.7578,1.7587,1.7475,1.7475,1.7475,1.7475,1.7475,1.7475,1.7444,1.7416,1.7433,1.7407,1.7418,1.7403,1.7403,1.7405,1.741,1.7393,1.7385,1.7398,1.7408,1.7403,1.7394,1.74,1.7394,1.7373,1.7382,1.7467,1.748,1.7492,1.75,1.7372,1.7372,1.7292,1.7291,1.729]}]]